Location: Newark
(34.6283°N, 36.0776°E)
Time: 09:22:23
(UTC+00:00)

SR - Pass Details

Date: 23 October 2019
Orbit: 573 x 882 km, 66.7° (Epoch: 19 November)

Event Time Altitude Azimuth Distance (km) Brightness Sun altitude
Rises 02:59:12 0° 346° (NNW) 3,463 ? -10.6°
Reaches altitude 10° 03:02:14 10° 0° (N) 2,539 ? -10.0°
Maximum altitude 03:06:52 23° 52° (NE) 1,779 ? -9.1°
Drops below altitude 10° 03:11:27 10° 103° (ESE) 2,514 ? -8.1°
Sets 03:14:25 0° 118° (ESE) 3,422 ? -7.5°
